Hourly Data Report for September 23, 2017

All times are specified in Local Standard Time (LST). Add 1 hour to adjust for Daylight Saving Time where and when it is observed.

SAINT JOHN A
NEW BRUNSWICK

45°18'58.000" N
65°53'24.000" W
108.80 m
8104901
71609
YSJ

Download Data

Hourly Data (September 2017)
Hourly Data Report for September 23, 2017
Temp Definition
°C
Dew Point Temp Definition
°C
Rel Hum Definition
%
Wind Dir Definition
10's deg

Wind Spd Definition
km/h
Visibility Definition
km
Stn Press Definition
kPa
Hmdx Definition


Wind Chill Definition


Weather Definition


TIME
00:00 Legend Double Dagger 11.1 8.6 85 6 7 24.1 100.56     LegendNANA
01:00 Legend Double Dagger 10.6 9.1 90 2 4 24.1 100.57     LegendNANA
02:00 Legend Double Dagger 10.7 9.5 92 2 7 24.1 100.53     Mostly Cloudy
03:00 Legend Double Dagger 11.6 9.9 89 36 3 24.1 100.50     LegendNANA
04:00 Legend Double Dagger 9.7 8.8 94 36 3 24.1 100.42     LegendNANA
05:00 Legend Double Dagger 9.0 8.2 95 0 1 24.1 100.40     Mainly Clear
06:00 Legend Double Dagger 9.0 8.3 96 36 2 24.1 100.38     LegendNANA
07:00 Legend Double Dagger 10.6 9.8 95 36 1 24.1 100.37     LegendNANA
08:00 Legend Double Dagger 15.2 12.0 81 36 1 24.1 100.35     Mainly Clear
09:00 Legend Double Dagger 18.5 12.8 69 26 6 24.1 100.35     LegendNANA
10:00 Legend Double Dagger 20.7 14.0 65 28 10 24.1 100.34     LegendNANA
11:00 Legend Double Dagger 22.9 14.8 60 27 10 24.1 100.34 27   Mostly Cloudy
12:00 Legend Double Dagger 23.2 14.7 58 25 9 24.1 100.31 27   LegendNANA
13:00 Legend Double Dagger 24.4 15.0 55 36 2 24.1 100.22 28   LegendNANA
14:00 Legend Double Dagger 24.2 16.4 61 19 18 24.1 100.20 29   Mainly Clear
15:00 Legend Double Dagger 22.6 15.6 64 20 20 24.1 100.13 27   LegendNANA
16:00 Legend Double Dagger 21.4 15.6 69 20 13 24.1 100.13 26   LegendNANA
17:00 Legend Double Dagger 21.1 14.6 66 20 14 24.1 100.14 25   Mainly Clear
18:00 Legend Double Dagger 17.5 15.0 85 21 8 24.1 100.18     LegendNANA
19:00 Legend Double Dagger 15.4 14.5 94 18 4 24.1 100.21     LegendNANA
20:00 Legend Double Dagger 14.8 14.0 95 36 2 24.1 100.26     Mainly Clear
21:00 Legend Double Dagger 12.8 12.2 96 6 5 24.1 100.31     LegendNANA
22:00 Legend Double Dagger 12.9 12.2 96 36 3 24.1 100.31     LegendNANA
23:00 Legend Double Dagger 12.6 11.9 95 36 2 24.1 100.31     Mainly Clear

Notes on Data Quality.

Legend

  • E = Estimated
  • M = Missing
  • NA = Not Available
  • ‡ = Partner data that is not subject to review by the National Climate Archives
Date modified: